User: anonymous   Login
Location: Mentone
(34.5413°N, 85.5351°W)
Time: 17:22:03
(UTC-06:00)
Language:

Tiros 1 despin weight - Orbit

View from above orbital plane
View from above orbital plane
View from above satellite
View from above satellite

Ground track
Ground track

The orbit data is extracted from the following two-line orbital elements,

1 00115U 60002D   17049.88621112  .00000112  00000-0  40729-4 0  9995
2 00115  48.1681 352.3150 0035649 297.9648  61.7659 14.83007526 32665
Epoch (UTC): 18 February 2017 21:16:08
Eccentricity: 0.0035649
inclination: 48.1681°
perigee height: 595 km
apogee height: 645 km
right ascension of ascending node: 352.3150°
argument of perigee: 297.9648°
revolutions per day: 14.83007526
mean anomaly at epoch: 61.7659°
orbit number at epoch: 3266

The dashed part of the orbit path shows where the satellite is in the earth's shadow,  

DLR